QPF
0.00 0.00 0.00 0.00 0.00 0.00 0.00 0.00 0.00 0.00 0.00 0.00 0.00 0.01 0.04 0.11 0.14 0.10 0.02 0.03 0.00 0.00 0.00 0.00 0.00 0.00 0.00 0.00 0.00 0.00 0.01 0.02 0.00 0.00 0.00 0.00 0.00 0.00 0.00 0.00 0.00 0.00 0.00 0.00
0.00 0.00 0.00 0.00 0.00 0.00 0.00 0.00 0.00 0.00 0.00 0.00 0.01 0.02 0.03 0.04 0.05 0.08 0.01 0.01 0.00 0.01 0.00 0.00 0.00 0.00 0.00 0.00 0.00 0.00 0.00 0.00 0.00 0.00 0.00 0.00 0.00 0.00 0.00 0.00 0.00 0.00 0.00 0.00
0.00 0.00 0.00 0.00 0.00 0.00 0.00 0.00 0.00 0.00 0.00 0.00 0.01 0.03 0.00 0.00 0.00 0.02 0.00 0.00 0.00 0.01 0.00 0.00 0.00 0.00 0.00 0.00 0.00 0.00 0.00 0.00 0.00 0.00 0.00 0.00 0.00 0.00 0.00 0.00 0.00 0.00 0.00 0.00
0.00 0.00 0.00 0.00 0.00 0.00 0.00 0.00 0.00 0.00 0.00 0.00 0.01 0.01 0.00 0.00 0.00 0.00 0.00 0.00 0.00 0.00 0.00 0.00 0.00 0.00 0.00 0.00 0.00 0.00 0.00 0.00 0.00 0.00 0.00 0.00 0.00 0.00 0.00 0.00 0.00 0.00 0.00 0.00
0.00 0.00 0.00 0.00 0.00 0.00 0.00 0.00 0.00 0.00 0.00 0.00 0.00 0.00 0.00 0.00 0.00 0.00 0.00 0.00 0.00 0.00 0.00 0.00 0.00 0.00 0.00 0.00 0.00 0.00 0.00 0.00 0.00 0.00 0.00 0.00 0.00 0.00 0.00 0.00 0.00 0.00 0.02 0.00
0.00 0.00 0.00 0.00 0.00 0.00 0.00 0.00 0.00 0.00 0.00 0.00 0.00 0.00 0.00 0.00 0.00 0.00 0.00 0.00 0.00 0.00 0.00 0.00 0.00 0.00 0.00 0.00 0.00 0.00 0.00 0.00 0.00 0.00 0.00 0.00 0.00 0.00 0.00 0.00 0.00 0.00 0.01 0.00
0.00 0.00 0.00 0.00 0.00 0.00 0.00 0.00 0.00 0.00 0.00 0.00 0.00 0.00 0.00 0.00 0.00 0.00 0.01 0.03 0.02 0.04 0.02 0.00 0.00 0.00 0.00 0.00 0.00 0.00 0.00 0.00 0.00 0.00 0.00 0.00 0.00 0.00 0.00 0.00 0.00 0.00 0.00 0.00
0.00 0.00 0.00 0.00 0.00 0.00 0.00 0.00 0.00 0.00 0.00 0.00 0.00 0.00 0.00 0.00 0.00 0.00 0.00 0.00 0.03 0.02 0.03 0.02 0.00 0.00 0.00 0.00 0.00 0.00 0.00 0.00 0.00 0.00 0.00 0.00 0.00 0.00 0.00 0.00 0.00 0.01 0.00 0.00
0.00 0.00 0.00 0.00 0.00 0.00 0.00 0.00 0.00 0.00 0.00 0.00 0.00 0.00 0.01 0.00 0.00 0.00 0.00 0.00 0.01 0.04 0.01 0.01 0.00 0.00 0.00 0.00 0.00 0.00 0.00 0.00 0.00 0.00 0.00 0.00 0.00 0.00 0.00 0.00 0.00 0.00 0.00 0.00
0.00 0.00 0.00 0.00 0.00 0.00 0.00 0.00 0.00 0.00 0.00 0.00 0.00 0.00 0.04 0.00 0.00 0.00 0.00 0.00 0.00 0.03 0.00 0.00 0.00 0.00 0.00 0.00 0.00 0.00 0.00 0.00 0.00 0.00 0.00 0.00 0.00 0.00 0.00 0.00 0.00 0.00 0.00 0.00
0.00 0.00 0.00 0.00 0.00 0.00 0.00 0.00 0.00 0.00 0.00 0.00 0.00 0.00 0.00 0.00 0.00 0.00 0.00 0.00 0.00 0.02 0.00 0.00 0.00 0.00 0.00 0.00 0.00 0.00 0.00 0.00 0.00 0.00 0.00 0.00 0.00 0.00 0.00 0.00 0.00 0.00 0.00 0.00
0.00 0.00 0.00 0.00 0.00 0.00 0.00 0.00 0.00 0.00 0.00 0.00 0.00 0.00 0.00 0.00 0.00 0.01 0.01 0.00 0.00 0.00 0.00 0.00 0.00 0.00 0.00 0.00 0.00 0.00 0.00 0.00 0.00 0.00 0.00 0.00 0.00 0.00 0.00 0.00 0.00 0.00 0.00 0.00
0.00 0.00 0.00 0.00 0.00 0.00 0.00 0.00 0.00 0.00 0.00 0.00 0.00 0.00 0.00 0.00 0.00 0.00 0.01 0.01 0.01 0.00 0.00 0.00 0.00 0.00 0.00 0.00 0.00 0.00 0.00 0.00 0.00 0.00 0.00 0.00 0.00 0.00 0.00 0.00 0.00 0.00 0.00 0.00
0.00 0.00 0.00 0.00 0.00 0.00 0.00 0.00 0.00 0.00 0.00 0.00 0.00 0.00 0.01 0.01 0.01 0.00 0.03 0.15 0.01 0.01 0.00 0.00 0.00 0.00 0.00 0.00 0.00 0.00 0.00 0.00 0.00 0.00 0.00 0.00 0.00 0.00 0.00 0.00 0.00 0.00 0.00 0.00
0.00 0.00 0.00 0.00 0.00 0.00 0.00 0.00 0.00 0.00 0.00 0.00 0.00 0.00 0.00 0.00 0.00 0.00 0.00 0.00 0.01 0.00 0.00 0.00 0.00 0.00 0.00 0.00 0.00 0.00 0.00 0.00 0.00 0.00 0.00 0.00 0.00 0.00 0.00 0.00 0.00 0.00 0.00 0.00
0.00 0.00 0.00 0.00 0.00 0.00 0.00 0.00 0.00 0.00 0.00 0.00 0.00 0.00 0.00 0.00 0.00 0.00 0.00 0.00 0.00 0.00 0.00 0.00 0.00 0.00 0.00 0.00 0.00 0.00 0.00 0.00 0.00 0.00 0.00 0.00 0.00 0.00 0.00 0.00 0.00 0.00 0.00 0.00
0.00 0.00 0.00 0.00 0.00 0.00 0.00 0.00 0.00 0.00 0.00 0.00 0.00 0.00 0.00 0.00 0.00 0.00 0.00 0.00 0.00 0.00 0.00 0.00 0.00 0.00 0.00 0.00 0.00 0.00 0.00 0.00 0.00 0.00 0.00 0.00 0.00 0.00 0.00 0.00 0.00 0.00 0.00 0.00
0.00 0.00 0.00 0.00 0.00 0.00 0.00 0.00 0.00 0.00 0.00 0.00 0.00 0.00 0.00 0.00 0.00 0.00 0.00 0.00 0.00 0.00 0.00 0.00 0.00 0.00 0.00 0.00 0.00 0.00 0.00 0.00 0.00 0.00 0.00 0.00 0.00 0.00 0.00 0.00 0.00 0.00 0.01 0.03
0.00 0.00 0.00 0.00 0.00 0.00 0.00 0.00 0.00 0.00 0.00 0.00 0.00 0.00 0.00 0.00 0.00 0.00 0.00 0.00 0.00 0.00 0.00 0.00 0.00 0.00 0.00 0.00 0.00 0.00 0.00 0.00 0.00 0.00 0.00 0.00 0.00 0.00 0.00 0.03 0.07 0.03 0.09 0.19
0.00 0.00 0.00 0.00 0.00 0.00 0.00 0.00 0.00 0.00 0.00 0.01 0.02 0.01 0.00 0.00 0.00 0.01 0.00 0.00 0.00 0.00 0.01 0.01 0.03 0.01 0.00 0.00 0.00 0.00 0.00 0.00 0.00 0.00 0.00 0.00 0.00 0.00 0.03 0.06 0.04 0.05 0.08 0.02
0.00 0.00 0.00 0.00 0.00 0.00 0.00 0.00 0.00 0.00 0.01 0.07 0.12 0.08 0.05 0.03 0.01 0.01 0.00 0.00 0.00 0.00 0.01 0.03 0.09 0.02 0.00 0.00 0.00 0.00 0.00 0.00 0.00 0.00 0.00 0.00 0.00 0.03 0.01 0.00 0.00 0.00 0.00 0.00
0.00 0.00 0.00 0.00 0.00 0.00 0.00 0.00 0.00 0.00 0.03 0.05 0.16 0.19 0.06 0.05 0.06 0.04 0.01 0.00 0.00 0.00 0.00 0.02 0.19 0.19 0.08 0.00 0.00 0.00 0.00 0.00 0.00 0.00 0.02 0.04 0.04 0.01 0.00 0.00 0.00 0.00 0.00 0.00
0.00 0.00 0.00 0.00 0.00 0.00 0.00 0.00 0.00 0.00 0.01 0.02 0.08 0.05 0.03 0.02 0.02 0.03 0.03 0.01 0.00 0.01 0.01 0.10 0.72 0.29 0.26 0.16 0.05 0.02 0.07 0.11 0.13 0.06 0.06 0.06 0.05 0.04 0.02 0.00 0.00 0.00 0.00 0.00
0.00 0.00 0.00 0.00 0.00 0.00 0.00 0.00 0.00 0.00 0.00 0.01 0.01 0.00 0.01 0.01 0.02 0.04 0.05 0.08 0.07 0.16 0.10 0.11 0.25 0.20 0.28 0.36 0.29 0.21 0.12 0.11 0.11 0.05 0.04 0.04 0.02 0.01 0.00 0.00 0.00 0.00 0.00 0.00
0.00 0.00 0.00 0.00 0.00 0.00 0.00 0.00 0.00 0.00 0.00 0.00 0.00 0.01 0.01 0.01 0.03 0.03 0.07 0.22 0.20 0.32 0.34 0.28 0.29 0.24 0.27 0.42 0.51 0.34 0.07 0.06 0.04 0.03 0.01 0.00 0.00 0.00 0.00 0.00 0.00 0.00 0.00 0.00
0.00 0.00 0.00 0.00 0.00 0.00 0.00 0.00 0.00 0.00 0.00 0.00 0.00 0.00 0.00 0.00 0.00 0.01 0.04 0.13 0.35 0.37 0.59 0.52 0.50 0.48 0.46 0.36 0.30 0.15 0.10 0.04 0.00 0.00 0.00 0.00 0.00 0.00 0.00 0.00 0.00 0.00 0.00 0.00
MSLP
1008.61 1009.46 1009.50 1009.06 1009.33 1008.89 1008.76 1008.22 1007.62 1006.50 1006.31 1007.10 1008.08 1009.31 1009.44 1009.96 1010.38 1011.24 1009.80 1009.58 1009.74 1009.30 1009.32 1009.93 1010.55 1011.12 1011.93 1012.60 1013.18 1013.69 1014.19 1014.64 1014.95 1015.34 1015.68 1015.87 1015.97 1015.97 1016.09 1015.90 1015.69 1015.68 1015.94 1016.18
1009.27 1009.13 1008.48 1008.40 1008.29 1008.48 1008.12 1007.74 1006.90 1006.57 1006.55 1007.76 1009.23 1010.18 1010.08 1009.87 1008.42 1008.80 1008.31 1008.53 1008.97 1009.08 1009.51 1009.85 1010.28 1010.77 1011.48 1012.04 1012.73 1013.37 1013.89 1014.40 1014.67 1014.99 1015.22 1015.42 1015.63 1015.65 1015.68 1015.42 1015.38 1015.43 1015.79 1015.97
1009.05 1007.87 1007.48 1007.80 1007.12 1007.45 1007.17 1006.90 1006.59 1006.78 1007.24 1008.16 1009.25 1010.22 1009.98 1009.56 1009.57 1008.72 1008.81 1008.52 1008.36 1008.41 1009.17 1009.52 1009.89 1010.43 1011.08 1011.81 1012.29 1012.79 1013.44 1014.01 1014.30 1014.61 1015.04 1015.40 1015.57 1015.62 1015.64 1015.45 1015.41 1015.55 1015.68 1015.91
1008.50 1006.98 1007.37 1007.00 1007.01 1006.38 1006.38 1005.89 1006.57 1007.21 1007.95 1008.56 1008.76 1010.06 1009.72 1009.78 1009.30 1008.85 1008.26 1008.08 1008.38 1008.26 1008.43 1008.72 1009.21 1010.00 1010.54 1011.06 1011.77 1012.36 1013.09 1013.68 1014.07 1014.43 1014.75 1015.17 1015.49 1015.82 1015.71 1015.54 1015.45 1015.61 1015.55 1015.45
1007.38 1006.76 1006.47 1006.02 1005.48 1005.12 1005.71 1006.20 1006.89 1007.73 1008.42 1009.47 1009.78 1009.99 1008.81 1009.33 1009.33 1008.23 1007.49 1007.58 1007.68 1008.01 1007.65 1007.94 1008.36 1009.11 1009.87 1010.73 1011.36 1012.03 1012.64 1013.36 1013.73 1014.18 1014.39 1014.87 1015.37 1015.59 1015.56 1015.68 1015.58 1015.54 1015.62 1015.47
1006.85 1006.01 1005.82 1005.02 1004.53 1004.62 1005.01 1006.59 1007.68 1008.88 1009.84 1010.27 1009.84 1010.07 1008.87 1008.96 1007.37 1006.34 1006.41 1006.19 1006.59 1007.28 1006.81 1007.22 1007.96 1008.76 1009.56 1010.37 1011.10 1011.75 1012.43 1012.96 1013.50 1013.80 1014.15 1014.54 1015.00 1015.33 1015.62 1015.75 1015.79 1015.55 1015.32 1015.36
1006.46 1005.67 1004.78 1004.44 1004.53 1004.34 1005.14 1007.21 1008.76 1010.14 1011.16 1011.04 1010.20 1010.13 1008.69 1006.45 1005.87 1005.33 1005.08 1005.23 1005.85 1006.27 1006.30 1007.00 1007.63 1008.45 1009.17 1010.01 1010.57 1011.37 1012.16 1012.70 1013.25 1013.59 1013.83 1014.11 1014.51 1014.90 1015.28 1015.47 1015.64 1015.66 1015.44 1015.42
1007.23 1005.59 1004.18 1003.26 1003.60 1004.15 1005.37 1007.01 1008.57 1009.94 1011.26 1010.47 1009.88 1009.13 1006.28 1004.38 1004.45 1004.36 1004.02 1004.65 1005.25 1005.80 1005.93 1006.54 1007.21 1007.83 1008.65 1009.43 1010.10 1010.85 1011.62 1012.31 1012.87 1013.35 1013.53 1013.80 1014.11 1014.49 1014.79 1015.06 1015.20 1015.22 1015.16 1015.18
1006.45 1005.22 1003.60 1003.03 1002.66 1003.60 1004.92 1006.25 1006.94 1008.75 1009.95 1010.14 1009.17 1007.88 1005.98 1005.09 1004.49 1004.59 1003.87 1003.73 1004.84 1005.54 1005.87 1006.01 1006.91 1007.60 1008.40 1009.11 1009.64 1010.31 1011.09 1011.80 1012.29 1012.70 1013.14 1013.45 1013.80 1014.07 1014.36 1014.56 1014.71 1014.87 1014.96 1014.96
1005.40 1005.61 1003.64 1003.11 1002.79 1003.39 1004.05 1004.88 1006.86 1008.66 1009.87 1010.15 1009.47 1008.46 1007.22 1005.78 1005.34 1005.20 1004.67 1004.14 1004.05 1004.46 1005.22 1006.04 1006.62 1007.35 1008.12 1008.74 1009.40 1010.17 1010.64 1011.11 1011.45 1012.09 1012.61 1012.99 1013.31 1013.59 1013.84 1014.16 1014.38 1014.59 1014.68 1014.75
1004.86 1005.45 1004.19 1003.68 1003.60 1003.59 1004.19 1004.85 1006.50 1008.28 1009.40 1010.02 1009.91 1008.52 1007.03 1005.51 1005.99 1006.17 1005.36 1004.88 1004.11 1004.49 1005.11 1005.70 1006.28 1007.07 1007.69 1008.56 1009.23 1009.74 1010.46 1011.02 1011.49 1011.80 1012.20 1012.67 1012.93 1013.22 1013.46 1013.86 1014.09 1014.23 1014.43 1014.51
1004.51 1005.20 1005.43 1004.71 1003.90 1003.37 1004.20 1005.36 1006.44 1008.25 1009.53 1009.64 1009.84 1008.51 1007.95 1007.33 1007.11 1006.49 1005.10 1005.41 1004.74 1004.63 1004.88 1005.31 1005.93 1006.77 1007.56 1008.30 1008.97 1009.61 1010.22 1010.70 1011.05 1011.33 1011.83 1012.22 1012.61 1012.91 1013.21 1013.42 1013.63 1013.92 1014.14 1014.31
1004.17 1005.40 1006.04 1005.32 1005.23 1004.15 1004.77 1005.29 1005.95 1007.36 1008.57 1009.54 1010.04 1009.06 1007.66 1007.48 1007.35 1006.60 1005.62 1004.95 1005.23 1005.16 1005.46 1005.59 1006.26 1006.92 1007.48 1008.07 1008.68 1009.27 1009.89 1010.18 1010.63 1011.04 1011.49 1011.91 1012.26 1012.57 1012.81 1012.96 1013.07 1013.40 1013.70 1013.79
1004.63 1005.78 1006.39 1006.36 1006.02 1005.58 1005.25 1005.35 1005.96 1006.69 1008.16 1009.09 1008.91 1008.47 1007.33 1007.38 1006.58 1006.49 1006.36 1006.08 1004.46 1005.48 1005.65 1005.98 1006.30 1006.86 1007.44 1008.04 1008.58 1009.05 1009.48 1009.77 1010.22 1010.80 1011.28 1011.54 1011.72 1011.94 1012.31 1012.58 1012.68 1012.90 1013.13 1013.26
1006.36 1006.62 1006.29 1006.31 1006.20 1005.52 1005.13 1005.16 1005.48 1006.32 1006.97 1007.83 1007.92 1007.53 1007.13 1007.09 1006.46 1005.82 1005.67 1006.11 1006.32 1005.88 1006.15 1006.03 1006.56 1006.80 1007.48 1008.06 1008.57 1008.85 1009.22 1009.42 1009.75 1010.22 1010.75 1010.97 1011.11 1011.37 1011.71 1012.03 1012.36 1012.50 1012.60 1012.74
1007.57 1007.72 1007.49 1006.99 1006.21 1005.85 1005.51 1005.07 1005.06 1005.77 1006.54 1006.96 1007.11 1006.83 1006.03 1006.06 1005.56 1005.79 1005.91 1006.24 1006.75 1007.14 1006.06 1005.57 1006.16 1006.42 1006.91 1007.43 1007.82 1008.40 1008.88 1009.18 1009.43 1009.70 1009.93 1010.22 1010.73 1010.99 1011.17 1011.41 1011.65 1011.96 1012.14 1012.23
1008.82 1008.68 1008.94 1008.34 1007.21 1006.35 1005.75 1004.84 1004.99 1005.42 1006.09 1006.48 1006.70 1005.90 1005.34 1006.19 1005.57 1005.36 1005.42 1005.86 1006.31 1006.19 1005.97 1005.92 1005.88 1006.14 1006.35 1006.74 1007.07 1007.56 1008.03 1008.68 1009.12 1009.32 1009.54 1009.82 1010.13 1010.36 1010.71 1010.99 1011.18 1011.31 1011.58 1011.66
1008.67 1009.14 1009.36 1009.21 1008.32 1007.46 1005.73 1004.78 1004.98 1005.58 1005.97 1006.26 1006.05 1005.87 1005.42 1005.35 1005.67 1004.79 1004.29 1005.28 1005.99 1005.78 1006.12 1006.22 1006.24 1006.38 1006.81 1006.32 1006.46 1006.95 1007.53 1008.05 1008.56 1008.99 1009.27 1009.55 1009.73 1010.06 1010.29 1010.56 1010.90 1011.04 1011.10 1011.35
1007.94 1008.64 1009.45 1009.47 1009.01 1007.79 1006.54 1006.35 1006.45 1006.78 1008.38 1008.89 1008.56 1007.90 1007.41 1006.73 1006.01 1005.73 1005.11 1004.40 1005.30 1005.67 1005.88 1004.99 1005.44 1005.50 1005.75 1006.19 1006.22 1006.31 1007.21 1007.60 1008.01 1008.41 1008.73 1009.04 1009.38 1009.72 1010.00 1010.10 1010.45 1010.54 1010.88 1011.31
1007.89 1008.22 1009.31 1009.81 1009.65 1008.82 1008.25 1006.91 1006.57 1006.69 1008.72 1009.30 1009.45 1008.31 1008.21 1007.60 1007.64 1005.93 1005.53 1006.10 1006.34 1006.29 1006.49 1005.15 1004.50 1004.49 1004.66 1004.93 1005.57 1006.26 1006.25 1006.98 1007.53 1007.91 1008.36 1008.83 1009.00 1009.39 1009.83 1010.18 1010.44 1010.93 1011.22 1011.51
1009.35 1009.45 1009.73 1009.74 1009.55 1009.07 1008.53 1007.56 1006.58 1007.65 1010.29 1009.71 1009.60 1009.32 1008.65 1008.84 1009.56 1008.27 1007.16 1007.03 1007.14 1006.06 1005.03 1004.46 1003.77 1003.11 1002.85 1003.58 1004.67 1005.51 1005.88 1006.47 1006.87 1007.65 1008.45 1008.99 1009.36 1009.75 1009.93 1010.40 1010.74 1011.17 1011.59 1011.82
1010.82 1010.91 1010.92 1010.55 1010.07 1009.55 1008.80 1008.09 1008.59 1010.03 1010.26 1010.05 1009.94 1009.51 1009.23 1008.14 1008.98 1008.72 1007.18 1007.16 1006.68 1005.55 1004.15 1003.38 1003.28 1002.36 1002.10 1002.58 1003.97 1004.51 1005.70 1006.02 1007.21 1007.66 1008.36 1009.29 1010.01 1010.24 1010.39 1010.47 1011.13 1011.51 1011.89 1012.19
1011.67 1011.54 1011.52 1011.32 1010.65 1009.96 1009.69 1009.69 1009.79 1010.04 1010.03 1010.00 1009.83 1009.20 1008.71 1008.19 1008.27 1009.07 1008.11 1007.43 1006.89 1006.80 1006.25 1004.66 1003.20 1000.98 1000.66 1002.44 1003.97 1004.65 1004.94 1005.84 1007.24 1007.83 1008.33 1009.10 1010.10 1010.87 1011.09 1011.14 1011.45 1011.94 1012.27 1012.52
1011.84 1011.33 1011.47 1011.34 1011.19 1010.48 1010.17 1010.15 1009.90 1009.87 1009.89 1009.55 1009.25 1008.92 1008.61 1008.39 1008.28 1008.58 1007.19 1007.07 1006.78 1007.56 1007.55 1006.47 1004.64 1003.20 1002.31 1003.21 1004.45 1003.68 1003.49 1005.53 1007.05 1007.89 1008.51 1009.36 1010.47 1011.04 1011.30 1011.39 1011.67 1012.02 1012.46 1012.81
1012.16 1011.73 1011.92 1011.83 1011.50 1010.89 1010.39 1010.23 1010.04 1009.68 1009.54 1009.28 1008.71 1008.40 1008.03 1007.54 1007.92 1007.73 1006.83 1006.47 1006.47 1007.46 1006.90 1006.61 1006.00 1005.00 1003.64 1002.84 1004.74 1001.59 1001.25 1004.41 1006.90 1008.31 1008.89 1009.93 1010.94 1011.29 1011.69 1011.83 1011.95 1012.13 1012.43 1012.68
1011.83 1011.95 1012.11 1012.11 1011.65 1011.43 1011.00 1010.31 1009.81 1009.51 1009.20 1008.76 1008.50 1007.62 1007.16 1007.04 1006.71 1006.68 1006.15 1006.19 1005.57 1005.79 1006.28 1006.12 1006.41 1005.80 1004.48 1005.26 1004.08 1004.01 1004.06 1005.54 1006.96 1008.37 1009.33 1010.42 1011.08 1011.32 1011.73 1012.16 1012.32 1012.33 1012.33 1012.55
Thickness
5796 5771 5756 5770 5773 5780 5774 5769 5770 5796 5809 5795 5781 5774 5782 5784 5774 5762 5781 5788 5789 5792 5800 5800 5798 5798 5792 5789 5784 5781 5778 5777 5776 5772 5770 5768 5768 5771 5773 5777 5779 5781 5779 5778
5775 5757 5785 5790 5791 5779 5774 5773 5778 5795 5807 5787 5769 5765 5778 5781 5796 5788 5797 5797 5795 5792 5790 5795 5797 5796 5793 5788 5785 5781 5779 5778 5777 5775 5774 5773 5772 5774 5776 5779 5781 5782 5779 5779
5762 5785 5804 5792 5789 5778 5776 5782 5780 5783 5791 5785 5770 5753 5770 5782 5783 5790 5791 5798 5803 5804 5791 5792 5793 5793 5792 5788 5787 5784 5781 5779 5778 5778 5775 5774 5773 5774 5776 5779 5780 5779 5778 5777
5772 5803 5791 5787 5778 5789 5772 5805 5797 5789 5773 5746 5780 5727 5761 5766 5772 5782 5788 5792 5797 5798 5800 5801 5798 5793 5793 5793 5790 5787 5782 5780 5779 5778 5775 5773 5770 5766 5773 5777 5778 5778 5778 5781
5774 5791 5787 5785 5792 5808 5786 5799 5792 5784 5772 5763 5765 5742 5761 5765 5763 5779 5790 5792 5795 5796 5807 5806 5802 5800 5797 5794 5790 5787 5783 5779 5779 5777 5778 5775 5771 5772 5773 5774 5776 5777 5777 5779
5787 5811 5803 5799 5814 5815 5819 5786 5777 5762 5748 5741 5753 5752 5752 5757 5777 5794 5799 5803 5800 5798 5810 5811 5806 5804 5798 5796 5793 5787 5780 5779 5777 5777 5777 5776 5773 5771 5769 5770 5771 5775 5777 5778
5782 5792 5808 5815 5799 5810 5806 5761 5727 5735 5716 5718 5748 5742 5753 5796 5806 5808 5809 5809 5808 5806 5813 5808 5802 5799 5797 5794 5793 5787 5781 5778 5777 5776 5777 5777 5775 5772 5769 5770 5770 5771 5774 5774
5749 5751 5800 5824 5806 5790 5787 5763 5728 5719 5710 5739 5743 5738 5781 5822 5820 5821 5824 5819 5813 5807 5811 5807 5805 5804 5800 5796 5793 5790 5784 5779 5778 5776 5777 5777 5776 5773 5771 5772 5772 5773 5774 5774
5754 5765 5816 5821 5824 5812 5785 5768 5782 5755 5748 5739 5749 5775 5802 5811 5814 5810 5823 5826 5811 5808 5809 5812 5809 5806 5802 5797 5796 5793 5788 5783 5781 5780 5778 5777 5776 5774 5773 5773 5774 5774 5775 5775
5784 5756 5810 5818 5827 5820 5802 5807 5767 5743 5736 5734 5744 5749 5749 5787 5797 5801 5811 5816 5816 5816 5814 5811 5808 5806 5803 5800 5798 5795 5792 5787 5786 5783 5780 5779 5777 5777 5776 5775 5774 5774 5774 5775
5794 5774 5792 5811 5797 5787 5791 5781 5774 5757 5743 5728 5720 5743 5783 5792 5795 5793 5803 5812 5821 5816 5814 5811 5811 5809 5806 5800 5797 5795 5790 5787 5784 5784 5783 5779 5778 5777 5778 5775 5775 5774 5774 5774
5800 5770 5757 5781 5809 5817 5798 5786 5768 5734 5739 5734 5724 5741 5780 5777 5783 5787 5802 5809 5816 5819 5818 5817 5814 5810 5806 5800 5798 5793 5790 5787 5786 5786 5784 5782 5779 5778 5777 5776 5776 5775 5773 5773
5804 5763 5743 5765 5774 5797 5787 5786 5782 5759 5742 5734 5715 5728 5783 5779 5780 5790 5802 5812 5808 5811 5810 5812 5808 5804 5805 5803 5800 5796 5792 5791 5788 5786 5784 5782 5780 5778 5777 5777 5778 5776 5774 5774
5797 5766 5752 5732 5752 5770 5772 5777 5776 5761 5731 5733 5736 5747 5777 5773 5787 5792 5791 5791 5815 5808 5808 5805 5807 5805 5803 5801 5797 5796 5795 5795 5791 5786 5783 5781 5781 5781 5779 5778 5778 5776 5775 5774
5770 5757 5766 5762 5764 5775 5775 5775 5776 5763 5758 5740 5750 5762 5770 5771 5782 5794 5799 5794 5791 5802 5801 5805 5803 5803 5797 5795 5793 5794 5793 5794 5794 5789 5784 5782 5784 5783 5781 5779 5776 5775 5774 5774
5754 5741 5748 5754 5766 5762 5759 5768 5773 5773 5764 5759 5757 5761 5783 5784 5790 5789 5797 5796 5786 5787 5801 5811 5807 5806 5802 5800 5798 5795 5793 5793 5794 5792 5791 5790 5784 5784 5784 5782 5779 5776 5774 5774
5734 5727 5721 5721 5747 5750 5737 5767 5769 5771 5764 5760 5745 5772 5789 5773 5782 5786 5797 5797 5796 5796 5799 5804 5809 5805 5804 5804 5805 5801 5800 5797 5794 5794 5793 5791 5789 5786 5783 5781 5780 5779 5775 5774
5729 5720 5707 5707 5725 5701 5748 5777 5773 5764 5768 5763 5770 5773 5779 5780 5781 5793 5805 5796 5792 5798 5798 5799 5801 5801 5797 5805 5809 5807 5803 5799 5796 5793 5792 5792 5791 5787 5785 5782 5779 5778 5776 5773
5736 5721 5707 5697 5691 5720 5745 5744 5744 5739 5723 5726 5734 5739 5756 5763 5771 5776 5791 5802 5798 5797 5798 5810 5809 5810 5808 5804 5805 5806 5798 5798 5796 5794 5792 5791 5790 5787 5786 5783 5779 5778 5774 5767
5732 5722 5706 5692 5690 5687 5711 5742 5754 5749 5707 5724 5725 5736 5738 5751 5738 5762 5782 5779 5781 5786 5787 5801 5809 5814 5816 5812 5807 5798 5802 5796 5795 5794 5791 5788 5787 5785 5780 5776 5772 5768 5764 5761
5693 5697 5697 5688 5687 5697 5715 5732 5749 5718 5696 5716 5719 5724 5732 5725 5724 5742 5758 5761 5765 5781 5793 5805 5813 5817 5823 5821 5810 5800 5795 5792 5794 5791 5785 5779 5776 5773 5772 5768 5765 5760 5755 5752
5680 5673 5672 5674 5677 5684 5712 5722 5709 5698 5700 5706 5708 5717 5722 5734 5724 5729 5749 5751 5761 5776 5795 5803 5804 5816 5816 5820 5808 5806 5786 5791 5783 5783 5778 5769 5764 5763 5762 5761 5754 5750 5746 5741
5663 5673 5666 5672 5669 5689 5697 5697 5700 5695 5695 5697 5699 5714 5719 5726 5728 5719 5732 5740 5750 5757 5768 5781 5795 5818 5829 5811 5799 5792 5785 5784 5776 5776 5772 5766 5757 5751 5749 5747 5742 5736 5732 5728
5665 5675 5665 5668 5670 5676 5683 5687 5691 5691 5687 5693 5699 5705 5713 5716 5718 5712 5733 5735 5741 5736 5738 5748 5767 5779 5790 5790 5782 5787 5785 5777 5772 5768 5765 5758 5748 5743 5740 5737 5733 5727 5722 5717
5656 5662 5652 5652 5660 5670 5673 5675 5678 5683 5685 5684 5691 5698 5704 5710 5705 5707 5720 5728 5735 5725 5730 5736 5743 5753 5763 5776 5760 5744 5772 5774 5762 5758 5753 5746 5735 5732 5728 5726 5722 5719 5714 5710
5655 5645 5637 5636 5651 5651 5655 5664 5668 5669 5671 5675 5672 5686 5696 5701 5706 5706 5712 5717 5730 5726 5718 5729 5721 5732 5745 5744 5747 5756 5765 5758 5754 5745 5741 5731 5724 5723 5719 5713 5711 5707 5705 5698